Regional Weather Roundup
Issued by NWS Little Rock, AR

Home | Current Version | Previous Version | Text Only | Print | Product List | Glossary Off
Versions: 1 2 3 4 5 6 7 8 9 10 11 12 13 14 15 16 17 18 19 20 21 22 23 24 25 26 27 28 29 30 31 32 33 34 35 36 37 38 39 40 41 42 43 44 45 46 47 48 49 50

000
ASUS44 KLZK 081905
RWRLZK

WEATHER ROUNDUP FOR ARKANSAS
NATIONAL WEATHER SERVICE LITTLE ROCK AR
100 PM CST THU DEC 08 2016

NOTE: "FAIR" INDICATES FEW OR NO CLOUDS BELOW 12,000 FEET WITH NO
SIGNIFICANT WEATHER AND/OR OBSTRUCTIONS TO VISIBILITY.

ARZ001-003-010-029-082000-
NORTHWEST ARKANSAS

CITY           SKY/WX    TMP DP  RH WIND       PRES   REMARKS
FAYETTEVILLE   SUNNY     29  11  47 N14       30.58F WCI  18
FORT SMITH     SUNNY     35   9  33 NW10      30.61F WCI  27
HARRISON       SUNNY     29   9  43 NW13      30.53F WCI  19
BENTONVILLE    SUNNY     28   9  43 NW9       30.59F WCI  20
ROGERS         SUNNY     29  11  47 NW9       30.58F WCI  20
SILOAM SPGS    SUNNY     28  10  47 N13       30.59F WCI  18
HIGHFILL       SUNNY     29  11  47 NW7       30.58F WCI  22
SPRINGDALE     SUNNY     28  10  47 NW12      30.59F WCI  18
$$

ARZ004-005-016-082000-
NORTH CENTRAL ARKANSAS

CITY           SKY/WX    TMP DP  RH WIND       PRES   REMARKS
BATESVILLE     PTSUNNY   36  10  35 NW7       30.54F
FLIPPIN        SUNNY     32   9  37 NW9       30.53F WCI  24
MTN HOME       SUNNY     32  10  40 VRB7      30.53F WCI  26
$$

ARZ040-041-082000-
WEST CENTRAL ARKANSAS

CITY           SKY/WX    TMP DP  RH WIND       PRES   REMARKS
MENA           PTSUNNY   36  14  41 NW7       30.55F
MOUNT IDA      PTSUNNY   36  13  38 VRB6      30.52F
$$

ARZ009-017-025-026-028-082000-
NORTHEAST ARKANSAS

CITY           SKY/WX    TMP DP  RH WIND       PRES   REMARKS
CORNING        FAIR      36  14  41 NW13      30.53F
JONESBORO      CLOUDY    35  15  44 N13       30.53F WCI  26
NEWPORT        MOSUNNY   36  12  37 NW14      30.54
WALNUT RIDGE   SUNNY     36  12  38 N12       30.53F
BLYTHEVILLE    MOSUNNY   41  21  44 N12       30.52F
NW BLYTHEVILLE PTSUNNY   36  18  48 N7G20     30.52F
$$

ARZ022-023-033-042-044-082000-
CENTRAL ARKANSAS

CITY           SKY/WX    TMP DP  RH WIND       PRES   REMARKS
LITTLE ROCK    CLOUDY    39  14  36 N14       30.54F
N LITTLE ROCK    N/A     37  15  39 N8G16     30.56F
JACKSONVILLE   MOSUNNY   39  14  35 W12       30.53F
SEARCY         MOSUNNY   39  12  33 N12       30.55F
HOT SPRINGS    MOSUNNY   40  15  36 NW9       30.54F
RUSSELLVILLE   MOSUNNY   37  13  37 NW12      30.56F
CLINTON        FAIR      36  10  35 NW12G21   30.54F
$$

ARZ036-082000-
EAST ARKANSAS

CITY           SKY/WX    TMP DP  RH WIND       PRES   REMARKS
WEST MEMPHIS   MOSUNNY   37  17  44 N13       30.51F
$$

ARZ050-053-066-070-073-082000-
SOUTHWEST ARKANSAS

CITY           SKY/WX    TMP DP  RH WIND       PRES   REMARKS
ARKADELPHIA    FAIR      41  24  51 N9        30.56F
CAMDEN         CLOUDY    41  23  48 NW6       30.55F
TEXARKANA      CLOUDY    40  21  46 N10       30.55F
EL DORADO      PTSUNNY   43  26  51 NE10      30.53F
DE QUEEN       CLOUDY    39  14  36 N12G18    30.57F
$$

ARZ056-057-069-082000-
SOUTHEAST ARKANSAS

CITY           SKY/WX    TMP DP  RH WIND       PRES   REMARKS
PINE BLUFF     CLOUDY    39  23  52 NW14      30.54F
STUTTGART      CLOUDY    39  18  41 N12       30.54F
MONTICELLO     PTSUNNY   41  24  51 N9        30.52F

$$





USA.gov is the U.S. government's official web portal to all federal, state and local government web resources and services.